Regional Weather Roundup
Issued by NWS

Home | Current Version | Previous Version | Graphics & Text | Print | Product List | Glossary On
Versions: 1 2 3 4 5 6 7 8 9 10 11 12 13 14 15 16 17 18 19 20 21 22 23 24 25 26 27
000
ASUS45 KCYS 262310
RWRWY

WYOMING REGIONAL WEATHER ROUNDUP
NATIONAL WEATHER SERVICE CHEYENNE WY
500 PM MDT SAT MAY 26 2018

NOTE:  "FAIR" INDICATES FEW OR NO CLOUDS BELOW 12,000 FEET
WITH NO SIGNIFICANT WEATHER AND/OR OBSTRUCTIONS TO VISIBILITY.

WYZ001-270000-
YELLOWSTONE NATIONAL PARK

CITY           SKY/WX    TMP DP  RH WIND       PRES   REMARKS
LK YELLOWSTONE   N/A     63  31  30 CALM      29.99F
W YELLOWSTONE  NOT AVBL

$$
WYZ002>013-054>058-071-098>099-270000-
NORTHERN WYOMING

CITY           SKY/WX    TMP DP  RH WIND       PRES   REMARKS
JACKSON        LGT RAIN  64  37  36 E9G20     29.93R
CODY           FAIR      70  54  56 N14       29.81R
GREYBULL       FAIR      89  41  18 SE12      29.69F
WORLAND        FAIR      88  32  13 SW5       29.70F
SHERIDAN       FAIR      84  59  42 NW13      29.74S
BUFFALO        FAIR      81  52  36 N14       29.80S
GILLETTE       FAIR      90  32  12 S13G20    29.75F
NEWCASTLE      FAIR      88  37  16 S9        29.79F

$$
WYZ014>020-022>026-101>103-270000-
CENTRAL WYOMING

CITY           SKY/WX    TMP DP  RH WIND       PRES   REMARKS
BIG PINEY      FAIR      74  20  13 W10       29.88F
PINEDALE       FAIR      72  19  14 SW6G21    29.90F
DUBOIS         FAIR      72  34  25 E10       29.90S
LANDER         FAIR      81  31  16 SW20G30   29.78F
RIVERTON       FAIR      85  28  12 S18       29.78F
CASPER         FAIR      87  24  10 SW5       29.79F
DOUGLAS        FAIR      86  44  23 E14       29.80F

$$
WYZ021-027>030-104>119-270000-
SOUTHERN WYOMING

CITY           SKY/WX    TMP DP  RH WIND       PRES   REMARKS
EVANSTON       FAIR      71  29  21 W7        29.88F
FORT BRIDGER   FAIR      78  14   9 S15G21    29.90S
ROCK SPRINGS   FAIR      79   9   7 S21G33    29.86F
DIXON          FAIR      85  15   7 S12G18    29.88F
RAWLINS        FAIR      83  13   7 S13G33    29.90F
SARATOGA       FAIR      82  14   7 SW9       29.90F
LARAMIE        FAIR      77  33  20 SE25G32   29.94S
CHEYENNE       FAIR      80  47  31 SE15G23   29.89F
TORRINGTON     FAIR      91  51  25 SE12      29.73F
PINE BLUFFS    FAIR      81  50  34 SE9       29.84S

$$




USA.gov is the U.S. government's official web portal to all federal, state and local government web resources and services.